This is the latest recevied weather packets stored in our database for station/object KR0L-13. If no packets are shown the sender has not sent any weather packets the latest 10 day(s).
| Time | Temp. | Humidity | Pressure | Rain* | Wind** | Luminosity | Snow |
|---|---|---|---|---|---|---|---|
| 1787970321 | 27.22° C | 42% | 1016.8 hPa | 0 mm | - | - | - |
| 1787969721 | 27.22° C | 43% | 1016.6 hPa | 0 mm | - | - | - |
| 1787969121 | 27.22° C | 44% | 1016.5 hPa | 0 mm | - | - | - |
| 1787968521 | 27.78° C | 43% | 1016.4 hPa | 0 mm | - | - | - |
| 1787967921 | 28.33° C | 41% | 1016.3 hPa | 0 mm | - | - | - |
| 1787967321 | 28.89° C | 40% | 1016.2 hPa | 0 mm | - | - | - |
| 1787966721 | 28.89° C | 40% | 1016.1 hPa | 0 mm | - | - | - |
| 1787966121 | 30° C | 39% | 1016.1 hPa | 0 mm | - | - | - |
| 1787965521 | 30.56° C | 38% | 1016.1 hPa | 0 mm | - | - | - |
| 1787964921 | 31.11° C | 36% | 1016.2 hPa | 0 mm | - | - | - |
| 1787964320 | 31.67° C | 36% | 1016.3 hPa | 0 mm | - | - | - |
| 1787963726 | 32.22° C | 35% | 1016.4 hPa | 0 mm | - | - | - |
| 1787963121 | 32.78° C | 34% | 1016.3 hPa | 0 mm | - | - | - |
| 1787962520 | 33.33° C | 33% | 1016.5 hPa | 0 mm | - | - | - |
| 1787961920 | 33.89° C | 32% | 1016.5 hPa | 0 mm | - | - | - |
| 1787961321 | 33.89° C | 33% | 1016.6 hPa | 0 mm | - | - | - |
| 1787960720 | 34.44° C | 33% | 1016.7 hPa | 0 mm | - | - | - |
| 1787960120 | 35° C | 32% | 1016.8 hPa | 0 mm | - | - | - |
| 1787959521 | 35° C | 32% | 1016.8 hPa | 0 mm | - | - | - |
| 1787958920 | 35° C | 32% | 1016.7 hPa | 0 mm | - | - | - |
| 1787958320 | 35° C | 32% | 1016.7 hPa | 0 mm | - | - | - |
| 1787957728 | 35° C | 33% | 1016.8 hPa | 0 mm | - | - | - |
| 1787957120 | 35° C | 33% | 1017 hPa | 0 mm | - | - | - |
| 1787956520 | 35.56° C | 32% | 1017.1 hPa | 0 mm | - | - | - |
| 1787955920 | 35.56° C | 32% | 1017.2 hPa | 0 mm | - | - | - |
* Rain latest hour (hover to see other rain measurements)
** Current wind speed in m/s (hover to see current wind gust speed)